#timestamp,LO_Frequency,Hit 
1501549215.4,286047059.5,N
1501549235.2,286047059.6,N
1501549255.0,286047059.7,N
1501549256.0,286047059.7,N
1501549275.8,286047057.7,N
1501549295.6,286047058.7,N
1501549315.4,286047054.2,N
1501549335.3,286047052.5,N
1501549355.1,286047055.3,N
1501549375.8,286047055.0,N
1501549395.7,286047054.7,N
1501549415.5,286047056.2,N
1501549435.3,286047058.4,N
1501549455.2,286047057.3,N
1501549475.9,286047056.6,N
1501549495.7,286047055.1,N
1501549515.6,286047056.2,N
1501549535.4,286047056.0,N
1501549555.2,286047056.2,N
1501549575.1,286047062.0,N
1501549576.0,286047062.0,N
1501549595.8,286047061.6,N
1501549615.6,286047061.1,N
1501549635.4,286047060.0,N
1501549655.3,286047056.2,N
1501549675.1,286047053.4,N
1501549695.8,286047055.4,N
1501549715.7,286047054.7,N
1501549735.5,286047058.4,N
1501549755.3,286047061.9,N
1501549775.2,286047060.6,N
1501549795.9,286047063.6,N
1501549815.7,286047061.9,N
1501549835.6,286047059.5,N
1501549855.4,286047060.1,N
1501549875.2,286047057.8,N
1501549895.5,286047057.7,N
1501549915.3,286047058.2,N
1501549935.1,286047059.5,N
1501549955.9,286047059.0,N
1501549975.7,286047059.8,N
1501549995.5,286047059.1,N
1501550015.4,286047059.8,N
1501550035.2,286047057.6,N
1501550055.0,286047056.0,N
1501550055.9,286047056.0,N
1501550075.8,286047058.4,N
1501550095.6,286047054.9,N
1501550115.4,286047051.2,N
1501550135.3,286047050.3,N
1501550155.1,286047048.1,N
1501550175.8,286047050.8,N
1501550195.7,286047048.3,N
1501550215.5,286047050.1,N
1501550235.3,286047051.4,N
1501550255.2,286047049.4,N
1501550275.9,286047051.7,N
1501550295.7,286047052.7,N
1501550315.6,286047055.0,N
1501550335.4,286047053.4,N
1501550355.2,286047052.7,N
1501550375.0,286047052.9,N
1501550376.0,286047052.9,N
1501550395.8,286047053.1,N
1501550415.6,286047054.2,N
1501550435.4,286047052.8,N
1501550455.3,286047054.3,N
1501550475.1,286047060.4,N
1501550495.8,286047055.8,N
1501550515.7,286047058.2,N
1501550535.5,286047058.3,N
1501550555.3,286047061.9,N
1501550575.2,286047059.0,N
1501550595.9,286047061.6,N
1501550615.7,286047061.5,N
1501550635.6,286047063.6,N
1501550655.4,286047063.5,N
1501550675.2,286047063.4,N
1501550695.1,286047062.5,N
1501550696.0,286047062.5,N
1501550715.8,286047062.3,N
1501550735.6,286047060.8,N
1501550755.5,286047064.6,N
1501550775.3,286047064.6,N
1501550795.1,286047062.7,N
1501550815.8,286047065.2,N
1501550835.7,286047064.7,N
1501550855.5,286047065.9,N
1501550875.3,286047066.2,N
1501550895.2,286047066.6,N
1501550915.0,286047064.0,N
1501550915.9,286047064.0,N
1501550935.7,286047065.0,N
1501550955.6,286047066.4,N
1501550975.4,286047066.5,N
1501550995.2,286047066.3,N
1501551015.1,286047066.0,N
1501551016.0,286047066.0,N
1501551035.8,286047066.1,N
1501551055.6,286047065.7,N
1501551075.5,286047066.9,N
1501551095.3,286047066.7,N
1501551115.1,286047066.1,N
1501551135.9,286047067.2,N
1501551155.7,286047065.8,N
1501551175.5,286047068.4,N
1501551195.3,286047068.0,N
1501551215.2,286047065.9,N
1501551235.0,286047067.3,N
1501551235.9,286047067.3,N
1501551255.7,286047067.6,N
1501551275.6,286047068.1,N
1501551295.4,286047063.7,N
1501551315.2,286047064.6,N
1501551335.1,286047063.0,N
1501551336.0,286047063.0,N
1501551355.8,286047061.1,N
1501551375.6,286047062.6,N
1501551395.5,286047062.5,N
1501551415.3,286047064.2,N
1501551435.1,286047066.2,N
1501551455.9,286047065.7,N
1501551475.7,286047065.5,N
1501551495.5,286047067.6,N
1501551515.4,286047071.6,N
1501551535.8,286047072.2,N
1501551555.7,286047070.5,N
1501551575.5,286047069.2,N
1501551595.3,286047067.0,N
1501551615.2,286047067.0,N
1501551635.9,286047067.9,N
1501551655.7,286047064.3,N
1501551675.6,286047066.8,N
1501551695.4,286047067.2,N
1501551715.2,286047067.7,N
1501551735.1,286047068.1,N
1501551736.0,286047068.1,N
1501551755.8,286047068.9,N
1501551775.6,286047072.7,N
1501551795.5,286047073.1,N
1501551815.3,286047074.3,N
1501551835.1,286047072.9,N
1501551855.9,286047070.5,N
1501551875.7,286047070.8,N
1501551895.5,286047071.5,N
1501551915.3,286047074.6,N
1501551935.2,286047074.8,N
1501551955.0,286047075.0,N
1501551955.9,286047075.0,N
1501551975.5,286047077.9,N
1501551995.3,286047076.4,N
1501552015.2,286047073.7,N
1501552035.9,286047075.1,N
1501552055.7,286047076.2,N
1501552075.5,286047073.8,N
1501552095.4,286047073.9,N
1501552115.2,286047075.1,N
1501552135.1,286047073.6,N
1501552136.0,286047073.6,N
1501552155.8,286047073.7,N
1501552175.6,286047072.2,N
1501552195.5,286047070.1,N
1501552215.3,286047074.4,N
1501552235.1,286047073.6,N
1501552255.9,286047072.1,N
1501552275.7,286047076.0,N
1501552295.5,286047075.0,N
1501552315.4,286047075.7,N
1501552335.2,286047076.0,N
1501552355.0,286047071.7,N
1501552355.9,286047071.7,N
1501552375.7,286047078.0,N
1501552395.6,286047075.1,N
1501552415.4,286047073.5,N
1501552435.2,286047071.8,N
1501552455.1,286047073.7,N
1501552456.0,286047073.7,N
1501552475.8,286047075.7,N
1501552495.6,286047075.9,N
1501552515.5,286047075.1,N
1501552535.3,286047076.7,N
1501552555.1,286047077.1,N
1501552575.9,286047078.4,N
1501552595.7,286047079.2,N
1501552615.5,286047079.0,N
1501552635.4,286047079.2,N
1501552655.2,286047076.5,N
1501552675.0,286047079.5,Y
1501552675.9,286047079.5,N
1501552695.8,286047047.1,N
1501552715.7,286047048.4,N
1501552735.5,286047048.7,N
1501552755.4,286047049.0,N
1501552775.2,286047049.6,N
1501552795.0,286047051.7,N
1501552795.9,286047051.7,N
